{"data":{"norad_id":54073,"intl_designator":"2022-136Y","name":"STARLINK-5146","alt_names":[],"object_type":"PAYLOAD","status":"ACTIVE","operator":null,"country":"US","launch_date":"2022-10-20","launch_site_code":"AFETR","launch_vehicle":null,"mission":null,"orbit_class":"UNKNOWN","rcs_meters":null,"size_class":null,"mass_kg":null,"dimensions":null,"purposes":["comms"],"wikipedia_slug":null,"has_3d_model":false,"image_url":null,"decayed_at":null,"tle_current":{"epoch":"2026-09-20T03:34:53.805504Z","epoch_age_seconds":116752,"freshness":"FRESH","line1":"1 54073U 22136Y   26263.14923386  .00001423  00000+0  53273-4 0  9991","line2":"2 54073  53.1615 179.7075 0001232  96.4382 263.6761 15.34376613216355","mean_motion":15.34376613,"eccentricity":0.0001232,"inclination_deg":53.1615,"raan_deg":179.7075,"arg_perigee_deg":96.4382,"mean_anomaly_deg":263.6761,"bstar":5.3273e-5,"rev_number":21635,"period_min":93.8491885108,"perigee_km":461.92995210113,"apogee_km":463.61555226407,"semimajor_km":6840.9097521826,"source":"CELESTRAK","updated_at":"2026-09-21T09:00:33.079790Z"}}}